Location: Unspecified
(43.3830°N, 0.0000°E)
Time: 09:46:23
(UTC+00:00)

N. Korean satellite - Pass Details

Date: 26 November 2020
Orbit: 453 x 502 km, 97.2° (Epoch: 16 January)

Event Time Altitude Azimuth Distance (km) Brightness Sun altitude
Rises 06:21:49 0° 358° (N) 2,542 10.0 -8.3°
Reaches altitude 10° 06:24:11 10° 343° (NNW) 1,668 8.9 -7.9°
Maximum altitude 06:27:00 22° 291° (WNW) 1,106 7.8 -7.5°
Drops below altitude 10° 06:29:50 10° 239° (WSW) 1,678 8.9 -7.0°
Sets 06:32:13 0° 224° (SW) 2,563 10.0 -6.6°
